Regional Weather Roundup
Issued by NWS Jackson, KY

Home | Current Version | Previous Version | Graphics & Text | Print | Product List | Glossary On
Versions: 1 2 3 4 5 6 7 8 9 10 11 12 13 14 15 16 17 18 19 20 21 22 23 24 25 26 27 28 29 30 31 32 33 34 35 36 37 38 39 40 41 42 43 44 45 46 47 48 49 50
000
ASUS43 KJKL 011905
RWRJKL

EAST KENTUCKY HOURLY WEATHER ROUNDUP
NATIONAL WEATHER SERVICE JACKSON KY
300 PM EDT FRI AUG 01 2014

NOTE: "FAIR" INDICATES FEW OR NO CLOUDS BELOW 12,000 FEET WITH
NO SIGNIFICANT WEATHER AND/OR OBSTRUCTIONS TO VISIBILITY.

* THESE REPORTS ARE NOT UNDER NWS QUALITY CONTROL AND MAY NOT
  REPORT WEATHER SUCH AS PRECIPITATION AND FOG.

KYZ079-080-083-085-087-088-110-112-115-119-120-012000
...EASTERN KENTUCKY...

CITY           SKY/WX    TMP DP  RH WIND       PRES   REMARKS
JACKSON        PTSUNNY   80  62  54 VRB3      30.10F
LONDON         MOSUNNY   83  61  47 NE5       30.10F
SOMERSET*      MOSUNNY   82  59  44 E8        30.09F
MONTICELLO*    SUNNY     85  63  47 VRB6      30.09F
WILLIAMSBURG*  MOSUNNY   81  63  54 E3        30.09F
MIDDLESBORO*   MOSUNNY   83  64  52 E7        30.09F
HARLAN APT*    MOCLDY    77  61  57 MISG      30.11S
BLACK MTN*       N/A     68  61  77 S1          N/A
PIKEVILLE APT* MOSUNNY   79  64  61 E7        30.11F
BIG SANDY*     MOCLDY    78  65  63 E6        30.11S
MOREHEAD APT*  MOCLDY    81  63  54 NE6G13    30.12S
$$

KYZ035-036-041-042-044-050-067-078-099-012000
...CENTRAL KENTUCKY...

CITY           SKY/WX    TMP DP  RH WIND       PRES   REMARKS
MT STERLING*   MOSUNNY   82  61  47 N6        30.11F
FLEMING/MASON* MOSUNNY   82  59  44 E8        30.10F
DANVILLE*      SUNNY     81  61  50 CALM      30.10F
RICHMOND*      MOSUNNY   82  61  47 N7        30.09F
LEXINGTON      PTSUNNY   83  57  41 VRB7      30.10F
FRANKFORT      CLOUDY    83  57  41 N7        30.08F
$$

KYZ091>093-OHZ055-061-077-WVZ005-015-034-035-042-012000
...SOUTHERN OHIO/WEST VIRGINIA...

CITY           SKY/WX    TMP DP  RH WIND       PRES   REMARKS
COVINGTON      CLOUDY    81  58  45 N7        30.10F
COLUMBUS       MOSUNNY   83  55  38 VRB3      30.10S
DAYTON         PTSUNNY   81  56  42 VRB3      30.11F
WILMINGTON     MOSUNNY   79  59  50 SE5       30.10F
HUNTINGTON     CLOUDY    77  64  64 SE9       30.09S
CHARLESTON     PTSUNNY   81  62  52 S8        30.10F
PINEVILLE*     CLOUDY    81  64  56 MISG      30.20S
BECKLEY        PTSUNNY   72  58  61 SE12      30.20F
BLUEFIELD      PTSUNNY   71  57  61 VRB3      30.22F
$$

VAZ002-007-008-TNZ017-027-036-066-071-012000
...SOUTHWEST VIRGINIA/EAST TENNESSEE...

CITY           SKY/WX    TMP DP  RH WIND       PRES   REMARKS
WISE*          MOSUNNY   77  55  47 SE3       30.18F
JONESVILLE*    CLEAR     81  63  54 NE3       30.12S
ABINGDON*      MOSUNNY   75  60  58 E12       30.16F
BRISTOL        PTSUNNY   77  61  57 SE9       30.12F
KNOXVILLE      MOSUNNY   82  63  52 NE9       30.05F
OAK RIDGE      CLOUDY    83  63  50 N3        30.08F
CROSSVILLE     PTSUNNY   77  61  57 CALM      30.12S
NASHVILLE      PTSUNNY   86  59  39 E5        30.05F
$$

...KEY TO REMARKS...
VSB - VISIBILITY IN MILES
WCI - WIND CHILL INDEX
HX  - HEAT INDEX

$$


USA.gov is the U.S. government's official web portal to all federal, state and local government web resources and services.